Skip Page Navigation
NASA JPL Caltech
NASA Logo - Jet Propulsion Laboratory + View the NASA Portal
+ Center for Near-Earth Object Studies
JPL Home Earth Solar System Stars & Galaxies Technology
JPL Solar System Dynamics
BODIES ORBITS EPHEMERIDES TOOLS PHYSICAL DATA DISCOVERY FAQ SITE MAP
IMPORTANT: The SSD Announcement email list is now available. Major changes are coming in the near future, including possible hostname and/or URL changes. To be notified of such changes, subscribe to this email list.

Please visit this page for more details.


JPL Small-Body Database Browser
Search: [ help ]  
52704 (1998 FX74)
Classification: Main-belt Asteroid          SPK-ID: 2052704
Ephemeris | Orbit Diagram | Orbital Elements | Mission Design | Physical Parameters | Discovery Circumstances | Close-Approach Data ]

[ show orbit diagram ]
Orbital Elements at Epoch 2459000.5 (2020-May-31.0) TDB
Reference: JPL 32 (heliocentric ecliptic J2000)
 Element Value Uncertainty (1-sigma)   Units 
e .1301431221062801 3.4501e-08  
a 3.156541635554675 1.9675e-08 au
q 2.745739452045126 1.1378e-07 au
i 9.812737767476007 4.8904e-06 deg
node 12.94238824789808 2.2423e-05 deg
peri 274.7544585931025 2.9664e-05 deg
M 263.6711156753316 2.1135e-05 deg
tp 2459548.612541860995
(2021-Nov-30.11254186)
0.00012136 TDB
period 2048.404447464648
5.61
1.9152e-05
5.244e-08
d
yr
n .1757465428497675 1.6431e-09 deg/d
Q 3.567343819064225 2.2235e-08 au
  Orbit Determination Parameters
   # obs. used (total)      2018  
   data-arc span      8075 days (22.11 yr)  
   first obs. used      1998-03-20  
   last obs. used      2020-04-28  
   planetary ephem.      DE431  
   SB-pert. ephem.      SB431-N16  
   condition code      0  
   norm. resid. RMS      .46257  
   source      ORB  
   producer      Otto Matic  
   solution date      2020-May-20 10:26:01  

Additional Information
 Earth MOID = 1.75266 au 
 Jupiter MOID = 1.72531 au 
 T_jup = 3.170 
[ hide covariance matrix ]
Orbital Elements at Epoch 2456781.5 (2014-May-04.0) TDB
Reference: JPL 32 (heliocentric ecliptic J2000)
 Element Value Uncertainty (1-sigma)   Units 
e .1283266009239322 3.4432e-08  
q 2.753565830545941 1.1316e-07 au
tp 2457496.483822050849
(2016-Apr-17.98382205)
0.00012009 TDB
node 12.9916271857193 2.2429e-05 deg
peri 274.188065199453 2.9853e-05 deg
i 9.808548205710968 4.888e-06 deg
  Orbit Determination Parameters
   # obs. used (total)      2018  
   data-arc span      8075 days (22.11 yr)  
   first obs. used      1998-03-20  
   last obs. used      2020-04-28  
   planetary ephem.      DE431  
   SB-pert. ephem.      SB431-N16  
   condition code      0  
   norm. resid. RMS      .46257  
   source      ORB  
   producer      Otto Matic  
   solution date      2020-May-20 10:26:01  

Additional Information
 Jupiter MOID = 1.72531 au 
 T_jup = 3.170 
Orbit Covariance (6×6)
  e q tp node peri i
e 1.185595857828728E-15 -3.853758143464833E-15 2.937453059109381E-13 3.099549126394185E-16 5.131984422055927E-14 -7.293748659947698E-16
q -3.853758143464833E-15 1.280607981629221E-14 -7.666783019205096E-13 -3.765131122557463E-15 -1.557777079748792E-13 6.279429316672704E-15
tp 2.937453059109381E-13 -7.666783019205096E-13 1.442091412700716E-8 2.581737205202924E-11 2.379258999890114E-9 -2.641371563294996E-12
node 3.099549126394185E-16 -3.765131122557463E-15 2.581737205202924E-11 5.030692973042516E-10 -4.909915933902719E-10 -3.826352590226574E-12
peri 5.131984422055927E-14 -1.557777079748792E-13 2.379258999890114E-9 -4.909915933902719E-10 8.912079972733363E-10 3.475965811601551E-12
i -7.293748659947698E-16 6.279429316672704E-15 -2.641371563294996E-12 -3.826352590226574E-12 3.475965811601551E-12 2.389289585046187E-11

Ephemeris | Orbit Diagram | Orbital Elements | Mission Design | Physical Parameters | Discovery Circumstances | Close-Approach Data ]

Physical Parameter Table
Parameter Symbol Value Units Sigma Reference Notes
absolute magnitude H 12.7   n/a MPO439448  
diameter diameter 14.387 km 0.136 urn:nasa:pds:neowise_diameters_albedos::2.0[mainbelt] (http://adsabs.harvard.edu/abs/2011ApJ...741...68M)  
geometric albedo albedo 0.088   0.007 urn:nasa:pds:neowise_diameters_albedos::2.0[mainbelt] (http://adsabs.harvard.edu/abs/2011ApJ...741...68M)  

52704 (1998 FX74)          Discovered 1998-Mar-24 by LINEAR at Socorro
Reference: 20030216/Numbers.arcLast Updated: 2004-04-19

[ show close-approach data ]
Alternate Designations
 1998 FX74 = 2000 SE10 
Ephemeris | Orbit Diagram | Orbital Elements | Mission Design | Physical Parameters | Discovery Circumstances | Close-Approach Data ]
ABOUT SSD CREDITS/AWARDS PRIVACY/COPYRIGHT GLOSSARY LINKS
FirstGov 2020-Jun-01 06:40 UT
(server date/time)  
NASA Home Page
Site Manager:   Ryan S. Park
Webmaster  Alan B. Chamberlin